Location: Abraham Lincoln Continuation High School
(33.9711°N, 117.3662°W)
Time: 07:35:12
(UTC+00:00)

USA 234 - Pass Details

Date: 21 September 2020
Orbit: 1102 x 1106 km, 123.0° (Epoch: 16 October)

Event Time Altitude Azimuth Distance (km) Brightness Sun altitude
Exits shadow 03:52:12 12° 40° (NE) 2,794 5.2 -26.1°
Maximum altitude 03:58:18 79° 315° (NW) 1,124 3.3 -27.2°
Drops below altitude 10° 04:04:49 10° 230° (SW) 2,955 5.8 -28.5°
Sets 04:07:18 0° 229° (SW) 3,911 6.5 -29.0°
